EW3836 Weather Reports


Display with metric or nautical units.
time (UTC)temp
F
wind
direction
speed
MPH
gust
MPH
rain 1hr
in
rain 24hr
in
rain mn
in
humidity
%
barometer
mb
20260902173100 59 144 0.0 0.0 0.00 0.00 0.00 57 1005.8
20260902171540 58 254 0.0 0.0 0.00 0.00 0.00 59 1006.0
20260902170033 59 196 0.0 0.0 0.00 0.00 0.00 59 1006.0
20260902164532 59 124 0.0 0.0 0.00 0.00 0.00 60 1005.7
20260902163028 57 174 0.0 0.0 0.00 0.00 0.00 63 1005.6
20260902161525 57 232 0.0 0.0 0.00 0.00 0.00 64 1005.7
20260902160034 56 217 0.0 0.0 0.00 0.00 0.00 65 1005.6
20260902154536 55 204 0.0 0.0 0.00 0.00 0.00 67 1005.8
20260902153035 55 216 0.0 0.0 0.00 0.00 0.00 68 1006.0
20260902151520 53 189 0.0 0.0 0.00 0.00 0.00 70 1006.1
20260902150019 53 220 0.0 0.0 0.00 0.00 0.00 71 1006.0
20260902144518 53 223 0.0 0.0 0.00 0.00 0.00 72 1006.1
20260902143018 53 219 0.0 0.0 0.00 0.00 0.00 72 1006.1
20260902141517 53 210 0.0 0.0 0.00 0.00 0.00 72 1006.0
20260902140016 53 160 0.0 0.0 0.00 0.00 0.00 72 1006.1
20260902134514 53 216 0.0 0.0 0.00 0.00 0.00 73 1006.1
20260902133014 53 226 0.0 0.0 0.00 0.00 0.00 73 1006.1
20260902131514 53 244 0.0 0.0 0.00 0.00 0.00 73 1005.8
20260902130011 53 219 0.0 0.0 0.00 0.00 0.00 74 1005.5
20260902124510 53 200 0.0 0.0 0.00 0.00 0.00 75 1005.6
20260902123011 53 184 0.0 0.0 0.00 0.00 0.00 76 1005.9
20260902121509 52 182 0.0 0.0 0.00 0.00 0.00 77 1005.5
20260902120008 52 163 0.0 0.0 0.00 0.00 0.00 77 1005.4
20260902114506 52 242 0.0 0.0 0.00 0.00 0.00 77 1005.2
20260902113005 53 161 0.0 0.0 0.00 0.00 0.00 77 1005.6
20260902111503 52 214 0.0 0.0 0.00 0.00 0.00 77 1005.5
20260902110002 52 236 0.0 0.0 0.00 0.00 0.00 77 1005.9
20260902104600 53 233 0.0 0.0 0.00 0.00 0.00 77 1006.0
20260902103058 52 227 0.0 0.0 0.00 0.00 0.00 77 1005.9
20260902101557 52 271 0.0 0.0 0.00 0.00 0.00 77 1005.2
20260902100055 52 240 0.0 0.0 0.00 0.00 0.00 77 1005.5
20260902094557 53 236 0.0 0.0 0.00 0.00 0.00 76 1005.4
20260902093051 53 217 0.0 0.0 0.00 0.00 0.00 75 1005.4
20260902091602 53 257 0.0 0.0 0.00 0.00 0.00 74 1005.6
20260902090048 53 239 0.0 0.0 0.00 0.00 0.00 73 1005.5
20260902084550 53 215 0.0 0.0 0.00 0.00 0.00 73 1005.4
20260902083048 54 228 0.0 0.0 0.00 0.00 0.00 72 1005.7
20260902081545 54 244 0.0 0.0 0.00 0.00 0.00 71 1005.6
20260902080043 54 232 0.0 0.0 0.00 0.00 0.00 70 1005.7
20260902074537 55 247 0.0 0.0 0.00 0.00 0.00 68 1005.5
20260902073038 55 255 0.0 0.0 0.00 0.00 0.00 67 1005.2
20260902071535 56 253 0.0 0.0 0.00 0.00 0.00 65 1005.2
20260902070034 56 223 0.0 0.0 0.00 0.00 0.00 64 1005.1
20260902064536 56 209 0.0 0.0 0.00 0.00 0.00 63 1004.8
20260902063024 57 236 0.0 0.0 0.00 0.00 0.00 61 1005.0
20260902061521 57 222 0.0 0.0 0.00 0.00 0.00 59 1004.8
20260902060022 58 235 0.0 0.0 0.00 0.00 0.00 58 1004.8
20260902054516 58 244 0.0 0.0 0.00 0.00 0.00 56 1004.8
20260902053015 59 228 0.0 0.0 0.00 0.00 0.00 54 1004.6
20260902051512 59 240 0.0 0.0 0.00 0.00 0.00 53 1004.6
20260902050009 60 252 0.0 0.0 0.00 0.00 0.00 52 1004.4
20260902044509 60 248 0.0 0.0 0.00 0.00 0.00 51 1004.2
20260902043006 61 268 0.0 0.0 0.00 0.00 0.00 49 1004.1
20260902041512 62 268 0.0 0.0 0.00 0.00 0.00 48 1003.9
20260902040006 63 281 0.0 0.0 0.00 0.00 0.00 47 1003.6
20260902034502 64 246 0.0 0.0 0.00 0.00 0.00 46 1003.4
20260902033002 65 275 0.0 0.0 0.00 0.00 0.00 46 1003.1
20260902031607 66 196 0.0 0.0 0.00 0.00 0.00 46 1002.8
20260902030101 66 165 0.0 0.0 0.00 0.00 0.00 47 1002.4
20260902024559 66 164 0.0 0.0 0.00 0.00 0.00 49 1002.3
20260902023058 67 164 0.0 0.0 0.00 0.00 0.00 48 1002.2
20260902021617 68 164 0.0 0.0 0.00 0.00 0.00 47 1002.2
20260902020057 68 289 0.0 0.0 0.00 0.00 0.00 44 1002.2
20260902014558 69 289 0.0 0.0 0.00 0.00 0.00 43 1002.3
20260902013055 69 289 0.0 0.0 0.00 0.00 0.00 42 1002.3
20260902011557 70 310 0.0 0.0 0.00 0.00 0.00 41 1002.3
20260902010054 70 326 0.0 0.0 0.00 0.00 0.00 41 1002.3
20260902004553 70 298 0.0 0.0 0.00 0.00 0.00 43 1002.2
20260902003053 71 297 0.0 0.0 0.00 0.00 0.00 42 1002.0
20260902001554 72 323 0.0 0.0 0.00 0.00 0.00 41 1001.9
20260902000055 72 310 0.0 0.0 0.00 0.00 0.00 41 1001.9
20260901234549 73 291 0.0 0.0 0.00 0.00 0.00 42 1001.9
20260901233048 72 355 0.0 0.0 0.00 0.00 0.00 42 1001.9
20260901231546 72 320 0.0 0.0 0.00 0.00 0.00 41 1002.0
20260901230051 72 308 0.0 0.0 0.00 0.00 0.00 42 1002.1
20260901224541 71 315 0.0 0.0 0.00 0.00 0.00 43 1002.2
20260901223101 73 300 0.0 0.0 0.00 0.00 0.00 41 1002.4
20260901221541 70 313 0.0 0.0 0.00 0.00 0.00 42 1002.4
20260901220046 69 302 0.0 0.0 0.00 0.00 0.00 42 1002.6
20260901214538 69 319 0.0 0.0 0.00 0.00 0.00 43 1002.5
20260901213036 67 261 0.0 0.0 0.00 0.00 0.00 45 1002.8
20260901211534 68 259 0.0 0.0 0.00 0.00 0.00 46 1002.6
20260901210038 68 218 0.0 0.0 0.00 0.00 0.00 46 1002.6
20260901204533 68 252 0.0 0.0 0.00 0.00 0.00 46 1002.9
20260901203042 67 237 0.0 0.0 0.00 0.00 0.00 45 1003.1
20260901201527 67 271 0.0 0.0 0.00 0.00 0.00 44 1002.9
20260901200030 69 242 0.0 0.0 0.00 0.00 0.00 41 1002.8
20260901194526 72 107 0.0 0.0 0.00 0.00 0.00 39 1002.5
20260901193023 72 179 0.0 0.0 0.00 0.00 0.00 38 1002.4
20260901191521 71 123 0.0 0.0 0.00 0.00 0.00 37 1003.0
20260901190037 68 216 0.0 0.0 0.00 0.00 0.00 39 1003.7
20260901184519 67 186 0.0 0.0 0.00 0.00 0.00 39 1003.8
20260901183026 65 77 0.0 0.0 0.00 0.00 0.00 43 1003.7
20260901181518 63 158 0.0 0.0 0.00 0.00 0.00 46 1003.7
20260901180018 62 169 0.0 0.0 0.00 0.00 0.00 48 1003.9
20260901174525 61 194 0.0 0.0 0.00 0.00 0.00 50 1003.9